Location: Woodland Altars Campground
(39.0410°N, 83.3840°W)
Time: 20:53:43
(UTC-05:00)

N. Korean satellite - Visible Passes

Search period start: 10 December 2018 00:00
Search period end: 20 December 2018 00:00
Orbit: 456 x 511 km, 97.2° (Epoch: 09 December)

Date Brightness Start Highest point End Pass type
(mag) Time Alt. Az. Time Alt. Az. Time Alt. Az.
10 Dec 9.8 05:56:15 10° ENE 05:58:22 15° E 06:00:31 10° SE visible
10 Dec 6.3 18:02:55 10° SSE 18:06:22 82° ENE 18:09:49 10° N visible
11 Dec 6.5 07:03:52 10° N 07:07:23 61° WNW 07:10:56 10° SSW visible
11 Dec 7.0 17:38:43 10° SE 17:41:52 35° ENE 17:45:02 10° N visible
11 Dec 10.1 19:14:35 10° WSW 19:15:28 11° W 19:16:22 10° WNW visible
12 Dec 7.2 06:39:19 10° NNE 06:42:50 58° E 06:46:24 10° S visible
12 Dec 9.1 18:48:00 10° SSW 18:50:44 22° W 18:53:30 10° NW visible
13 Dec 8.9 06:15:09 10° NE 06:18:14 27° E 06:21:20 10° SSE visible
13 Dec 7.5 18:22:46 10° S 18:26:06 49° W 18:29:27 10° NNW visible
14 Dec 9.9 05:51:42 10° ENE 05:53:32 13° E 05:55:22 10° ESE visible
14 Dec 6.3 17:58:07 10° SSE 18:01:31 70° ENE 18:04:56 10° N visible
15 Dec 6.5 06:58:59 10° N 07:02:34 72° WNW 07:06:11 10° SSW visible
15 Dec 9.9 19:09:04 10° WSW 19:10:34 12° W 19:12:05 10° WNW visible
16 Dec 7.6 06:34:29 10° NNE 06:38:00 50° E 06:41:33 10° S visible
16 Dec 8.9 18:42:57 10° SSW 18:45:51 25° W 18:48:46 10° NW visible
17 Dec 9.1 06:10:23 10° NE 06:13:22 24° E 06:16:22 10° SSE visible
17 Dec 7.1 18:17:50 10° S 18:21:12 57° W 18:24:36 10° NNW visible
18 Dec 10.1 05:47:12 10° ENE 05:48:38 12° E 05:50:05 10° ESE visible
18 Dec 6.4 17:53:16 10° SSE 17:56:38 59° ENE 18:00:02 10° N visible
19 Dec 6.5 06:54:04 10° N 06:57:42 84° WNW 07:01:23 10° SSW visible
19 Dec 9.8 19:03:43 10° SW 19:05:39 14° W 19:07:35 10° WNW visible
